Meteo pe oră la Abasár

Astăzi, 29 Iulie, Joi

Timp Temperatura Precipitaţii Vânt Presiune Umiditate
00:00 +24°C° 0 mm 2 m/s 737 mmHg 55%
01:00 +23°C° 0 mm 2 m/s 737 mmHg 64%
02:00 +21°C° 0 mm 3 m/s 737 mmHg 71%
03:00 +20°C° 0 mm 3 m/s 738 mmHg 79%
04:00 +19°C° 0 mm 3 m/s 738 mmHg 86%
05:00 +20°C° 0 mm 3 m/s 738 mmHg 81%
06:00 +22°C° 0 mm 3 m/s 738 mmHg 76%
07:00 +24°C° 0 mm 3 m/s 739 mmHg 71%
08:00 +26°C° 0 mm 4 m/s 739 mmHg 61%
09:00 +28°C° 0 mm 4 m/s 740 mmHg 52%
10:00 +29°C° 0 mm 4 m/s 740 mmHg 42%
11:00 +30°C° 0 mm 4 m/s 740 mmHg 37%
12:00 +32°C° 0 mm 5 m/s 740 mmHg 31%
13:00 +33°C° 0 mm 5 m/s 739 mmHg 25%
14:00 +33°C° 0 mm 5 m/s 739 mmHg 26%
15:00 +33°C° 0 mm 5 m/s 739 mmHg 26%
16:00 +33°C° 0 mm 5 m/s 739 mmHg 26%
17:00 +30°C° 0 mm 4 m/s 739 mmHg 33%
18:00 +28°C° 0 mm 3 m/s 739 mmHg 41%
19:00 +26°C° 0 mm 2 m/s 739 mmHg 48%
20:00 +25°C° 0 mm 2 m/s 739 mmHg 50%
21:00 +24°C° 0 mm 2 m/s 739 mmHg 52%
22:00 +23°C° 0 mm 2 m/s 739 mmHg 54%
23:00 +23°C° 0 mm 2 m/s 739 mmHg 56%

Mâine, 30 Iulie, Vineri

Timp Temperatura Precipitaţii Vânt Presiune Umiditate
00:00 +23°C° 0 mm 2 m/s 739 mmHg 57%
01:00 +21°C° 0 mm 2 m/s 739 mmHg 58%
02:00 +21°C° 0 mm 2 m/s 739 mmHg 62%
03:00 +20°C° 0 mm 2 m/s 739 mmHg 65%
04:00 +21°C° 0 mm 1 m/s 739 mmHg 69%
05:00 +22°C° 0 mm 1 m/s 739 mmHg 65%
06:00 +24°C° 0 mm 2 m/s 739 mmHg 61%
07:00 +26°C° 0 mm 2 m/s 739 mmHg 57%
08:00 +28°C° 0 mm 2 m/s 739 mmHg 51%
09:00 +29°C° 0 mm 1 m/s 739 mmHg 45%
10:00 +31°C° 0 mm 1 m/s 739 mmHg 40%
11:00 +32°C° 0 mm 1 m/s 739 mmHg 37%
12:00 +34°C° 0 mm 2 m/s 738 mmHg 34%
13:00 +35°C° 0 mm 2 m/s 738 mmHg 30%
14:00 +35°C° 0 mm 2 m/s 737 mmHg 30%
15:00 +34°C° 0 mm 1 m/s 737 mmHg 29%
16:00 +35°C° 0 mm 1 m/s 737 mmHg 28%
17:00 +33°C° 0 mm 1 m/s 736 mmHg 33%
18:00 +31°C° 0 mm 1 m/s 736 mmHg 38%
19:00 +29°C° 0 mm 1 m/s 736 mmHg 43%
20:00 +28°C° 0 mm 1 m/s 736 mmHg 44%
21:00 +27°C° 0 mm 1 m/s 736 mmHg 45%
22:00 +26°C° 0 mm 1 m/s 736 mmHg 46%
23:00 +26°C° 0 mm 1 m/s 736 mmHg 48%

Poimâine, 31 Iulie, Sâmbătă

Timp Temperatura Precipitaţii Vânt Presiune Umiditate
00:00 +25°C° 0 mm 1 m/s 736 mmHg 50%
01:00 +24°C° 0 mm 1 m/s 736 mmHg 53%
02:00 +24°C° 0 mm 1 m/s 736 mmHg 55%
03:00 +23°C° 0 mm 2 m/s 736 mmHg 57%
04:00 +23°C° 0 mm 2 m/s 736 mmHg 60%
05:00 +24°C° 0.1 mm 2 m/s 736 mmHg 58%
06:00 +25°C° 0.1 mm 2 m/s 736 mmHg 55%
07:00 +26°C° 0.1 mm 2 m/s 736 mmHg 53%
08:00 +28°C° 0 mm 2 m/s 736 mmHg 47%
09:00 +30°C° 0 mm 2 m/s 736 mmHg 41%
10:00 +32°C° 0 mm 2 m/s 736 mmHg 35%
11:00 +34°C° 0 mm 3 m/s 736 mmHg 34%
12:00 +35°C° 0 mm 5 m/s 735 mmHg 33%
13:00 +35°C° 0 mm 6 m/s 735 mmHg 32%
14:00 +35°C° 0 mm 6 m/s 735 mmHg 33%
15:00 +34°C° 0 mm 6 m/s 735 mmHg 35%
16:00 +33°C° 0 mm 6 m/s 735 mmHg 37%
17:00 +30°C° 0 mm 5 m/s 735 mmHg 43%
18:00 +28°C° 0 mm 4 m/s 736 mmHg 49%
19:00 +26°C° 0 mm 3 m/s 736 mmHg 55%
20:00 +25°C° 0 mm 2 m/s 736 mmHg 59%
21:00 +24°C° 0 mm 2 m/s 736 mmHg 63%
22:00 +23°C° 0 mm 2 m/s 736 mmHg 67%
23:00 +21°C° 0.2 mm 2 m/s 736 mmHg 73%

1 August, Duminică

Timp Temperatura Precipitaţii Vânt Presiune Umiditate
00:00 +21°C° 0.2 mm 1 m/s 737 mmHg 78%
01:00 +20°C° 0.2 mm 1 m/s 737 mmHg 84%
02:00 +20°C° 0.2 mm 1 m/s 737 mmHg 85%
03:00 +19°C° 0.2 mm 1 m/s 737 mmHg 86%
04:00 +19°C° 0.2 mm 1 m/s 736 mmHg 87%
05:00 +21°C° 0 mm 1 m/s 736 mmHg 81%
06:00 +21°C° 0 mm 2 m/s 736 mmHg 76%
07:00 +23°C° 0 mm 2 m/s 736 mmHg 70%
08:00 +26°C° 0 mm 2 m/s 736 mmHg 62%
09:00 +28°C° 0 mm 3 m/s 736 mmHg 54%
10:00 +30°C° 0 mm 3 m/s 735 mmHg 46%
11:00 +33°C° 0 mm 3 m/s 735 mmHg 40%
12:00 +35°C° 0 mm 3 m/s 734 mmHg 34%
13:00 +37°C° 0 mm 4 m/s 733 mmHg 28%
14:00 +37°C° 0 mm 5 m/s 733 mmHg 26%
15:00 +38°C° 0 mm 6 m/s 732 mmHg 24%
16:00 +39°C° 0 mm 7 m/s 732 mmHg 22%
17:00 +34°C° 0 mm 6 m/s 732 mmHg 35%
18:00 +29°C° 0 mm 6 m/s 733 mmHg 49%
19:00 +26°C° 0 mm 5 m/s 734 mmHg 63%
20:00 +23°C° 0 mm 4 m/s 734 mmHg 70%
21:00 +21°C° 0 mm 4 m/s 734 mmHg 76%
22:00 +19°C° 0 mm 4 m/s 734 mmHg 83%
23:00 +19°C° 0 mm 4 m/s 735 mmHg 85%

2 August, Luni

Timp Temperatura Precipitaţii Vânt Presiune Umiditate
00:00 +18°C° 0 mm 4 m/s 735 mmHg 87%
01:00 +17°C° 0 mm 4 m/s 735 mmHg 89%
02:00 +17°C° 0 mm 3 m/s 735 mmHg 87%
03:00 +17°C° 0 mm 3 m/s 735 mmHg 86%
04:00 +17°C° 0 mm 3 m/s 736 mmHg 84%
05:00 +18°C° 0 mm 3 m/s 736 mmHg 78%
06:00 +19°C° 0 mm 3 m/s 737 mmHg 73%
07:00 +20°C° 0 mm 4 m/s 737 mmHg 67%
08:00 +21°C° 0 mm 4 m/s 738 mmHg 62%
09:00 +23°C° 0 mm 4 m/s 738 mmHg 56%
10:00 +26°C° 0 mm 4 m/s 738 mmHg 50%
11:00 +26°C° 0.1 mm 4 m/s 739 mmHg 48%
12:00 +26°C° 0.1 mm 4 m/s 739 mmHg 47%
13:00 +27°C° 0.1 mm 4 m/s 739 mmHg 46%
14:00 +27°C° 0 mm 3 m/s 739 mmHg 44%
15:00 +28°C° 0 mm 3 m/s 739 mmHg 41%
16:00 +28°C° 0 mm 3 m/s 739 mmHg 38%
17:00 +26°C° 0 mm 2 m/s 739 mmHg 44%
18:00 +25°C° 0 mm 2 m/s 739 mmHg 49%
19:00 +23°C° 0 mm 1 m/s 740 mmHg 55%
20:00 +22°C° 0 mm 1 m/s 740 mmHg 59%
21:00 +21°C° 0 mm 1 m/s 740 mmHg 63%
22:00 +19°C° 0 mm 1 m/s 740 mmHg 67%
23:00 +19°C° 0 mm 1 m/s 741 mmHg 69%

3 August, Marţi

Timp Temperatura Precipitaţii Vânt Presiune Umiditate
00:00 +19°C° 0 mm 1 m/s 741 mmHg 71%
01:00 +18°C° 0 mm 1 m/s 741 mmHg 73%
02:00 +18°C° 0 mm 1 m/s 741 mmHg 75%
03:00 +16°C° 0 mm 1 m/s 742 mmHg 76%
04:00 +16°C° 0 mm 1 m/s 742 mmHg 78%
05:00 +19°C° 0 mm 1 m/s 742 mmHg 72%
06:00 +20°C° 0 mm 1 m/s 742 mmHg 66%
07:00 +22°C° 0 mm 1 m/s 743 mmHg 60%
08:00 +24°C° 0 mm 1 m/s 743 mmHg 54%
09:00 +26°C° 0 mm 1 m/s 743 mmHg 47%
10:00 +28°C° 0 mm 1 m/s 743 mmHg 40%
11:00 +29°C° 0 mm 1 m/s 742 mmHg 37%
12:00 +30°C° 0 mm 1 m/s 742 mmHg 34%
13:00 +31°C° 0 mm 2 m/s 741 mmHg 31%
14:00 +28°C° 0.1 mm 2 m/s 741 mmHg 41%
15:00 +26°C° 0.1 mm 3 m/s 741 mmHg 52%
16:00 +22°C° 0.1 mm 4 m/s 741 mmHg 62%
17:00 +21°C° 0.1 mm 3 m/s 741 mmHg 66%
18:00 +21°C° 0.1 mm 3 m/s 740 mmHg 70%
19:00 +20°C° 0.1 mm 3 m/s 740 mmHg 74%
20:00 +19°C° 0.1 mm 3 m/s 740 mmHg 77%
21:00 +19°C° 0.1 mm 2 m/s 740 mmHg 79%
22:00 +18°C° 0.1 mm 2 m/s 740 mmHg 82%
23:00 +18°C° 0 mm 2 m/s 740 mmHg 83%
Arată mai mult

Formular de consimțământ

Meteoprog și furnizorii noștri de servicii pot stoca și accesa date personale, precum cookies, identificatori de dispozitiv sau alte tehnologii similare pe dispozitivul dumneavoastră și procesa astfel de date pentru a personaliza conținutul și reclamele, dar și pentru a oferi caracteristici de social media și pentru a analiza traficul.

  • Stocarea și/sau accesarea informațiilor pe dispozitivul dumneavoastră

    Cookies, identificatori de dispozitiv sau alte informații pot fi stocate sau accesate pe dispozitiv în scopurile indicate mai sus.

  • Reclame și conținut personalizat, evaluarea reclamelor și a conținutului, informații despre audiențe și dezvoltarea produselor

    Reclamele și conținutul pot fi personalizate pe baza unui profil. Pot fi adăugate date suplimentare pentru a personaliza mai bine reclamele și conținutul. Performanța reclamelor și conținutului poate fi măsurată. Pot fi obținute informații despre utilizatorii care au văzut reclamele și conținutul. Aceste date pot fi utilizate pentru a dezvolta sau îmbunătăți experiența utilizatorilor, sistemele și software-ul.

Dând clic pe ‘Sunt de acord’, permiteți utilizarea cookie-urilor menționate, a identificatorilor de dispozitiv, balizelor web sau altor tehnologii similare. Setările pot fi modificate din browser-ul dispozitivului dumneavoastră.

În anumite scopuri, interesele legitime pot prima asupra consimțământului. Puteți citi mai multe informații în acest sens în Politica privind Confidențialitatea Datelor și Cookie.